Location: Unspecified
(30.2174°N, 0.0000°E)
Time: 10:25:15
(UTC+00:00)

Vanguard 1 - Visible Passes

Search period start: 04 April 2026 00:00
Search period end: 14 April 2026 00:00
Orbit: 654 x 3817 km, 34.2° (Epoch: 28 March)

Date Brightness Start Highest point End Pass type
(mag) Time Alt. Az. Time Alt. Az. Time Alt. Az.
4 Apr 12.1 01:49:58 64° SE 01:49:58 64° SE 02:00:37 10° ENE visible
4 Apr 11.5 04:02:29 27° W 04:12:10 78° NNW 04:20:50 10° ENE visible
4 Apr 13.4 23:55:05 18° E 23:55:05 18° E 23:57:51 10° E visible
5 Apr 11.9 02:07:35 77° S 02:08:04 77° SSE 02:20:04 10° ENE visible
5 Apr 11.5 04:20:06 20° W 04:31:52 73° N 04:40:11 10° ENE visible
6 Apr 13.1 00:12:39 27° E 00:12:39 27° E 00:17:52 10° ENE visible
6 Apr 11.9 02:25:09 71° WSW 02:27:48 86° SSE 02:39:28 10° ENE visible
6 Apr 11.4 04:37:39 13° W 04:51:35 71° N 04:59:34 10° E visible
7 Apr 12.8 00:30:08 39° E 00:30:08 39° E 00:37:38 10° ENE visible
7 Apr 11.9 02:42:38 57° W 02:47:34 86° NNW 02:58:51 10° ENE visible
7 Apr 11.4 04:56:32 10° W 05:11:18 73° N 05:18:57 10° E visible
7 Apr 13.9 21:57:30 10° SSW 22:35:03 - E 21:58:13 11° SSW visible
8 Apr 12.5 00:47:33 52° E 00:47:33 52° E 00:57:14 10° ENE visible
8 Apr 11.9 03:00:02 44° W 03:07:23 80° NNW 03:18:14 10° ENE visible
8 Apr 11.3 05:16:47 10° WNW 05:30:58 77° N 05:38:19 10° E visible
8 Apr 13.7 22:15:27 10° SSW 22:52:24 13° E 22:53:28 10° E visible
9 Apr 12.3 01:04:53 69° E 01:04:53 69° E 01:16:46 10° ENE visible
9 Apr 11.9 03:17:21 33° W 03:27:13 76° N 03:37:40 10° E visible
9 Apr 13.7 20:17:55 10° SSE 20:23:18 15° SSE 20:23:18 15° SSE visible
9 Apr 13.5 22:33:53 10° SSW 23:09:38 21° E 23:13:35 10° ENE visible
10 Apr 12.2 01:22:06 86° SE 01:22:06 86° SE 01:36:14 10° ENE visible
10 Apr 11.8 03:34:35 24° W 03:47:05 74° N 03:57:05 10° E visible
10 Apr 13.5 20:34:05 10° S 20:42:29 21° SSE 20:42:29 21° SSE visible
10 Apr 13.2 22:52:41 10° SW 23:26:47 31° E 23:33:27 10° ENE visible
11 Apr 12.2 01:39:14 75° W 01:41:44 86° NNW 01:55:43 10° ENE visible
11 Apr 11.8 03:51:42 16° W 04:06:56 76° N 04:16:31 10° E visible
11 Apr 13.4 20:51:21 10° SSW 21:31:20 - ENE 21:01:56 28° SSE visible
11 Apr 12.9 23:11:50 10° SW 23:43:47 44° E 23:53:10 10° ENE visible
12 Apr 12.2 01:56:14 58° W 02:01:42 81° NNW 02:15:12 10° ENE visible
12 Apr 11.7 04:09:00 10° WNW 04:26:45 79° N 04:35:57 10° E visible
12 Apr 13.7 19:02:38 10° SE 19:04:50 10° SE 19:07:04 10° ESE visible
12 Apr 13.2 21:09:14 10° SSW 21:48:11 10° ENE 21:21:41 35° S visible
12 Apr 12.6 23:31:17 10° WSW 00:00:37 59° E 00:12:48 10° ENE visible
13 Apr 12.2 02:13:02 44° W 02:21:42 78° N 02:34:42 10° E visible
13 Apr 11.6 04:29:17 10° WNW 04:46:27 86° NNE 04:55:18 10° ESE visible
13 Apr 13.5 19:13:07 10° SSE 19:24:07 17° SE 19:29:06 15° ESE visible
13 Apr 13.0 21:27:35 10° SSW 22:04:47 19° E 22:08:25 10° ENE visible
